カタログに戻る

FENGYUN 1C DEB

運用中SSO
NORAD 30264·DEBRIS·🇨🇳 China

打ち上げ May 10, 1999 から Taiyuan Satellite Launch Center

Loading…

次のパス (今後24時間)

TLE

最新Source: Space-Track

元期: Sep 13, 2026, 15:16 UTC

1 30264U 99025XZ  26256.63632608  .00001160  00000-0  66669-3 0  9999
2 30264  98.9501 314.8026 0105299 236.9980 277.4056 14.08544914  4269

AllMySatでFENGYUN 1C DEBをリアルタイム追跡

Download on the App Store